ATLAS AGENA D R/B, 2144

Orbit data source: Space-Track

ATLAS AGENA D R/B, 2144 is space debris in LEO originally from a launch on Fri, 08 Apr 1966 UTC launched from the Air Force Eastern Test Range (AFETR). Debris objects in space refer to the collection of defunct objects orbiting the Earth. Examples of debris include non-operational satellites, rocket bodies, and fragments generated from explosions, collisions, or faulty payload assembly.

Loading next visibility...
Identifier
2144, 1966-031B
Orbit
LEO
Country
Flag of USUS
Related business
Manufacturer
LMSC
Mission
Spacecraft
Bus & Motor
AGENA D, Unknown motor
Mass
769 kg wet, 769 kg dry
Launch date (UTC)
1966-04-08 (60 years ago)
Launch vehicle
Unknown
Launch site
Air Force Eastern Test Range (AFETR)
Object type
Payload
Rocket body
Debris
Shape & HBR
CYL, 1.1 m
Radar Cross Section
Large (>1 m²)

Expand to show TLE details & history
Last TLE update: 12 hours ago

TLE from 12 hours ago
0 ATLAS AGENA D R/B
1 02144U 66031B   26254.02447405  .00000195  00000-0  60584-4 0  9994
2 02144  35.0409 222.6278 0008032 336.7034  23.3292 14.44994716175195
Epoch: 2026-09-11T00:35Z
TLE epoch observation values (Epoch: 2026-09-11T00:35:14.557Z)
Latitude
-0.00004°
Longitude
-136.23667°
Altitude
735.743 km
Speed
7.492 km/s
True Right ascension
14h 50m 30s
True Declination
0° 00' 00"
Sunlit
Object was in daylight at epoch
Visualization orbit readout
Latitude
Unknown
Longitude
Unknown
Altitude
Unknown
Speed
Unknown
Apparent Right ascension
Unknown
Apparent Declination
Unknown
Sunlit
N/A
Visualization observer readout
Local Sidereal Time
04:49:13
Azimuth
Unknown
Elevation
Unknown
Doppler factor
Unknown
Orbital elements
Apogee altitude
750.897 km
Perigee altitude
739.454 km
Semi-major axis
7,123.313 km
Eccentricity
0.0008
Inclination
35.0409°
RAAN
222.6278°
Arg. of periapsis
336.7034°
True anomaly
23.36568°
Mean anomaly
23.3292°
Eccentric anomaly
23.34744°
Mean motion
3.61011 °/min
Orbital period
99.72 mins
BSTAR
0.000060584
Loading maneuver chart data...
Computing Atmospheric mass density...
Loading historical data...
Loading historical data...
Loading historical data...
Loading historical data...
Loading historical data...
Loading historical data...
Loading historical data...
Other satellites on launch #31 in the year 1966 (1966-04-08 UTC)

Documentation

Showing up to 5 results
|